Location: Aucun
(42.9667°N, 0.1667°W)
Time: 23:14:32
(UTC+00:00)

Daily predictions for brighter satellites

Satellite Brightness Start Highest point End
(mag) Time Altitude Azimuth Time Altitude Azimuth Time Altitude Azimuth
In-Cosmos 22 4.3 18:08:41 10° N 18:13:48 49° ENE 18:18:56 10° SSE
Meteor 1-21 4.2 18:10:42 10° N 18:16:22 77° E 18:21:58 10° SSE
SL-08 RB Rocket 4.1 18:14:04 10° SE 18:18:15 42° ENE 18:22:29 10° N
BREEZE-M DEB (TANK) 4.5 18:05:16 10° WSW 18:18:47 75° NNW 18:22:33 10° ENE
Okean 2 3.3 18:14:48 10° N 18:18:52 67° E 18:22:56 10° SSE
Cosmos 1975 Rocket 4.4 18:18:12 10° NNE 18:21:29 20° ENE 18:24:46 10° ESE
SKYMED 2 3.8 18:17:13 10° N 18:21:35 79° WNW 18:25:55 10° SSW
Landsat 5 3.7 18:18:48 10° N 18:22:44 72° WNW 18:26:48 10° SSW
Okean-O 3.5 18:23:15 10° SE 18:27:04 29° ENE 18:30:54 10° N
CENTAUR R/B 3.8 18:25:02 10° SE 18:28:04 15° ESE 18:31:20 10° ENE
USA 215 4.0 18:24:44 10° E 18:30:41 38° NNE 18:36:38 10° NW
Cosmos 2074 Rocket 4.0 18:25:27 10° S 18:31:40 75° E 18:37:58 10° N
Spot 2 4.0 18:29:48 10° SSE 18:34:02 89° WSW 18:38:07 10° NNW
Cosmos 1378 Rocket 3.7 18:32:26 10° N 18:36:52 81° W 18:41:18 10° S
Cosmos 1908 Rocket 3.5 18:34:20 10° S 18:38:47 72° E 18:43:14 10° NNE
HJ-1C 3.5 18:37:50 10° SSE 18:41:01 50° ENE 18:44:11 10° N
Atlas Centaur 2 4.0 18:33:56 10° SW 18:41:03 34° S 18:47:58 12° ESE
OBJECT-B 2.5 18:43:19 15° ENE 18:43:43 15° ENE 18:45:36 10° NNE
IRAS Rocket 4.5 18:39:05 10° NNE 18:44:44 78° WNW 18:50:19 10° SSW
Cosmos 1184 Rocket 3.8 18:44:09 10° NNE 18:46:54 26° ENE 18:48:28 17° ESE
ARGOS 3.5 18:42:22 10° S 18:47:42 72° WSW 18:53:05 10° NNW
Cosmos 1346 Rocket 3.1 18:46:12 10° N 18:50:04 43° ENE 18:53:55 10° SSE
YAOGAN 1 2.5 18:48:10 10° SSE 18:52:29 90° SW 18:56:51 10° NNW
H-2A R/B 3.7 18:49:43 10° SSW 18:54:21 37° W 18:59:09 10° NNW
SJ 16-02 1.5 18:50:16 10° S 18:54:33 51° ESE 18:58:51 10° NNE
Okean O Rocket 3.5 18:51:04 10° SSW 18:55:01 33° W 18:58:59 10° NNW
USA 186 3.1 18:55:20 19° ENE 18:55:20 19° ENE 18:57:37 10° NNE
DMSP B5D2-2 4.0 18:52:18 10° NNE 18:57:36 68° ESE 19:02:50 10° S
Cosmos 1943 Rocket 3.2 18:52:25 10° SW 18:57:48 50° WNW 19:03:17 10° NNE
Meteor 1-12 Rocket 4.4 18:52:00 10° S 18:57:53 60° E 19:03:44 10° NNE
Cosmos 1538 Rocket 4.4 18:54:12 10° N 18:59:20 44° ENE 19:03:23 16° SE
NOSS 3-2 (A) 3.8 18:55:06 10° S 18:59:57 34° ESE 19:05:22 10° NE
Cosmos 1238 Rocket 4.0 18:55:51 10° SSW 19:02:08 77° W 19:07:37 10° N
ISS -1.5 19:02:56 10° NW 19:05:23 18° N 19:07:19 12° NE
CZ-2C R/B 3.9 19:03:00 10° N 19:08:19 47° WNW 19:13:38 10° SW
IRS-1C Rocket 4.1 19:06:23 10° SSE 19:11:38 82° WSW 19:16:55 10° NNW
COSMOS 2455 4.0 19:06:55 10° NW 19:12:33 43° WSW 19:18:11 10° S
Cosmos 962 Rocket 4.4 19:07:40 10° S 19:13:44 60° E 19:19:46 10° NNE
Geosat 3.9 19:09:25 10° NNE 19:14:28 89° ESE 19:19:29 10° SSW
PSLV R/B 4.0 19:10:31 10° NNE 19:14:34 50° E 19:18:32 10° S
Cosmos 2369 Rocket 2.4 19:12:04 10° SSW 19:17:43 73° WNW 19:23:23 10° NNE
Meteor 1-24 Rocket 4.4 19:13:50 10° N 19:18:37 31° ENE 19:19:55 28° E
Okean 2 Rocket 3.7 19:19:52 32° E 19:19:52 32° E 19:23:41 10° NNE
USA 276 3.9 19:17:23 10° NW 19:19:56 22° N 19:20:47 20° NNE
Cosmos 1833 4.3 19:15:27 10° NNW 19:21:01 58° ENE 19:24:01 27° SE
USA 306 4.4 19:18:56 10° NW 19:22:29 25° NNE 19:23:53 21° NE
Cosmos 1674 3.4 19:19:13 10° NNW 19:22:51 51° W 19:26:28 10° S
Cosmos 1777 Rocket 4.5 19:20:01 10° SSW 19:25:12 63° WNW 19:30:25 10° NNE
CSL-04 Debris 4.1 19:20:14 10° SSE 19:25:39 89° W 19:31:04 10° NNW
Lacrosse 5 rocket 2.7 19:21:38 10° WNW 19:25:52 39° SW 19:28:53 16° S
H-2A R/B 3.2 19:22:06 10° N 19:26:04 43° WNW 19:29:58 10° SW
USA 308 4.3 19:26:00 10° NW 19:29:36 26° NNE 19:30:44 23° NE
Cosmos 1782 Rocket 4.2 19:26:12 10° SSW 19:30:34 58° W 19:34:57 10° N
Cosmos 1626 2.3 19:27:06 10° NNW 19:30:46 69° W 19:33:38 16° S
Sich 1 Rocket 3.5 19:29:06 10° S 19:33:36 65° E 19:38:05 10° NNE
Cosmos 1656 Rocket 3.8 19:28:08 10° SSW 19:33:43 77° WNW 19:39:15 10° NNE
BREEZE-M R/B 3.5 19:31:21 10° WNW 19:34:48 37° N 19:36:13 26° NE
ATLAS CENTAUR R/B 3.9 19:31:09 10° WNW 19:34:58 24° WSW 19:38:51 10° SSW
Cosmos 1805 3.8 19:31:45 10° SSW 19:35:35 59° W 19:39:25 10° N
APEX 3.3 19:31:01 10° NNW 19:35:35 59° ENE 19:35:58 56° E
SeaSat 1 2.7 19:36:16 41° E 19:37:22 49° ENE 19:42:06 10° NNW
Cosmos 1315 Rocket 3.0 19:34:33 10° SSW 19:38:29 71° W 19:42:32 10° N
CZ-4B R/B 2.5 19:36:43 10° N 19:39:40 41° WNW 19:42:38 10° SW
Cosmos 1025 Rocket 2.8 19:35:22 10° N 19:39:43 78° E 19:41:03 43° SSE
SL-14 R/B 3.1 19:36:03 10° N 19:40:01 82° E 19:40:47 56° SSE
Cosmos 923 Rocket 4.3 19:35:50 10° N 19:40:49 44° ENE 19:41:23 42° E
Cosmos 1536 Rocket 4.4 19:36:50 10° N 19:40:03 33° NE 19:40:03 33° NE
SJ-6B 2.8 19:41:52 61° SE 19:42:25 71° ENE 19:46:30 10° N
SL-8 Rocket 3.9 19:38:22 10° S 19:44:37 73° E 19:50:55 10° NNE
CZ-4 R/B 4.0 19:44:25 10° SW 19:47:11 19° W 19:49:58 10° NW
Meteor 2-10 4.0 19:45:57 10° S 19:51:33 69° E 19:57:01 10° NNE
MOS 1 4.4 19:50:50 48° ESE 19:51:47 54° ENE 19:57:19 10° N
Cosmos 1680 Rocket 3.9 19:48:25 10° N 19:53:19 43° ENE 19:53:19 43° ENE
Cosmos 2151 Rocket 4.2 19:55:30 42° NE 19:55:30 42° NE 19:58:38 10° NNE
Cosmos 1339 Rocket 4.4 19:48:19 10° N 19:54:32 90° ENE 19:58:25 24° S
EO 1 Delta rocket 4.0 19:54:11 58° ESE 19:54:53 66° ENE 20:00:27 10° N
Cosmos 1975 Rocket 4.5 19:55:21 10° NNW 19:59:29 38° W 20:03:36 10° SSW
IRS-1A Rocket 4.4 19:59:35 54° ESE 20:00:29 61° ENE 20:06:19 10° N
SL-27 R/B 4.2 19:57:13 10° NNW 19:58:44 25° N 19:58:44 25° N
Cosmos 1300 Rocket 4.1 19:57:59 10° SSW 20:02:18 57° W 20:06:37 10° N
Cosmos 1766 4.5 20:02:12 10° SSW 20:05:54 41° WNW 20:09:38 10° N
Cosmos 1727 Rocket 4.0 20:00:13 10° N 20:06:25 55° ENE 20:06:40 55° E
Meteor 1-22 Rocket 4.2 20:04:25 10° S 20:10:00 87° W 20:15:51 10° N
NOSS 3-2 (C) 3.7 20:05:42 10° SSW 20:18:56 - NE 20:09:25 44° S
Cosmos 2112 Rocket 4.4 20:07:26 10° NNW 20:11:50 49° NE 20:11:50 49° NE
USA 215 3.2 20:11:36 54° SE 20:13:17 86° SW 20:19:54 10° NW
Cosmos 990 Rocket 3.8 20:09:25 10° SSW 20:14:34 90° WSW 20:19:48 10° NNE
OBJECT-B 3.1 20:16:13 24° WNW 20:16:13 24° WNW 20:18:18 10° NW
CENTAUR R/B 2.3 20:11:39 10° SW 20:17:23 89° NW 20:24:20 10° NE
Resurs 01 Rocket 3.1 20:20:48 28° N 20:20:48 28° N 20:22:58 10° N
Meteor 2-5 Rocket 4.0 20:14:19 10° NNW 20:19:48 65° W 20:21:30 43° SSW
Helios 1A Rocket 4.0 20:21:11 41° NNW 20:21:11 41° NNW 20:23:56 10° NNW
Resurs 1-3 4.3 20:21:57 52° NNW 20:21:57 52° NNW 20:25:20 10° NNW
Ariane Rocket 3.2 20:22:33 65° N 20:22:33 65° N 20:26:55 10° NNW
CZ-3 Stage 3 3.9 20:00:11 10° WSW 20:22:50 39° SSW 20:24:26 37° SSE
BREEZE-M DEB (TANK) 4.4 20:09:41 10° WNW 20:27:26 74° SSW 20:28:32 62° SSE
Cosmos 2366 rocket 4.3 20:23:11 10° SSW 20:29:16 63° W 20:35:22 10° N
Atlas Centaur 2 4.0 20:22:51 10° WSW 20:29:57 30° SSW 20:30:31 30° S
SJ 16-02 4.2 20:30:31 10° W 20:33:26 17° WNW 20:36:22 10° NNW
Cosmos 1241 Rocket 4.4 20:27:44 10° NW 20:34:01 77° WSW 20:34:12 76° SW
USA 238 DEB 3.7 20:35:32 10° SW 20:41:59 71° NW 20:48:51 10° NNE
USA 238 3.7 20:35:39 10° SW 20:42:05 71° NW 20:48:56 10° NNE
Cosmos 2297 Rocket 3.7 20:37:42 10° N 20:40:51 26° NNE 20:40:51 26° NNE
ISS -0.4 20:39:51 10° NW 20:40:17 13° NW 20:40:17 13° NW
NOSS 3-2 (A) 4.4 20:45:13 10° WSW 20:50:33 43° NW 20:56:43 10° NNE
Cosmos 2227 Rocket 3.9 21:00:21 10° N 21:02:56 24° N 21:02:56 24° N
USA 281 4.1 21:11:48 10° NNE 21:15:50 40° N 21:15:50 40° N
CENTAUR R/B 4.5 22:04:02 10° W 22:09:10 25° NNW 22:15:03 10° NNE
